This demonstration page uses our WeatherBlox Daily Observations layout. Learn more.

38.89511, -77.03637

Hourly Observations for August 7, 2015

Temp ( °F °C ) Dew Point ( °F °C ) Humidity (%) Winds ( mph kmh ) Pressure ( in mb ) Visibility ( mi km ) Precip ( " mm )
12:52 am 00:52 Cloudy 75 24 64 18 69 69 N 15 24 29.88 1012 10 16.09344 0.001 0.001
1:52 am 01:52 Cloudy 73 23 63 17 69 69 NE 15 24 29.88 1012 10 16.09344 0.001 0.001
2:52 am 02:52 Cloudy 73 23 63 17 69 69 NE 8 13 29.85 1011 10 16.09344 0 0
3:23 am 03:23 Cloudy with Light Rain 72 22 63 17 73 73 NE 10 17 29.85 1011 10 16.09344 0.001 0.001
3:52 am 03:52 Cloudy with Rain 72 22 64 18 78 78 NNE 9 15 29.85 1011 7 11.265408 0.01 0.254
4:52 am 04:52 Cloudy with Light Rain 72 22 64 18 78 78 NNE 8 13 29.85 1011 10 16.09344 0.04 1.016
5:10 am 05:10 Cloudy 72 22 64 18 78 78 NNE 7 11 29.85 1011 10 16.09344 0 0
5:34 am 05:34 Cloudy 72 22 64 18 78 78 N 10 17 29.85 1011 10 16.09344 0 0
5:52 am 05:52 Cloudy 72 22 64 18 78 78 NNE 10 17 29.85 1011 10 16.09344 0.001 0.001
6:25 am 06:25 Cloudy 72 22 64 18 78 78 NNE 10 17 29.88 1012 10 16.09344 0 0
6:52 am 06:52 Cloudy 72 22 64 18 78 78 NNE 8 13 29.88 1012 10 16.09344 0 0
7:52 am 07:52 Cloudy 72 22 66 19 83 83 NNE 8 13 29.88 1012 10 16.09344 0 0
8:52 am 08:52 Cloudy 73 23 66 19 78 78 NE 8 13 29.88 1012 10 16.09344 0 0
9:52 am 09:52 Cloudy 73 23 66 19 78 78 NE 10 17 29.88 1012 10 16.09344 0 0
10:52 am 10:52 Cloudy 75 24 64 18 69 69 NE 9 15 29.88 1012 10 16.09344 0 0
11:52 am 11:52 Cloudy 77 25 64 18 65 65 NE 12 19 29.88 1012 10 16.09344 0 0
12:52 pm 12:52 Cloudy 79 26 63 17 58 58 NE 12 19 29.88 1012 10 16.09344 0 0
1:52 pm 13:52 Cloudy 81 27 63 17 54 54 ENE 12 19 29.88 1012 10 16.09344 0 0
2:52 pm 14:52 Cloudy 82 28 63 17 51 51 ENE 12 19 29.88 1012 10 16.09344 0 0
3:52 pm 15:52 Cloudy 82 28 64 18 55 55 NE 10 17 29.88 1012 10 16.09344 0 0
4:52 pm 16:52 Cloudy 82 28 64 18 55 55 NNE 8 13 29.88 1012 10 16.09344 0 0
5:52 pm 17:52 Cloudy 81 27 64 18 58 58 ESE 7 11 29.88 1012 10 16.09344 0 0
6:52 pm 18:52 Cloudy 81 27 64 18 58 58 E 6 9 29.88 1012 10 16.09344 0 0
7:52 pm 19:52 Cloudy 81 27 66 19 62 62 ESE 5 7 29.88 1012 10 16.09344 0 0
8:52 pm 20:52 Cloudy 79 26 66 19 65 65 ESE 6 9 29.88 1012 10 16.09344 0 0
9:52 pm 21:52 Cloudy 79 26 66 19 65 65 SE 5 7 29.91 1013 10 16.09344 0 0
10:52 pm 22:52 Cloudy 79 26 66 19 65 65 SE 3 6 29.91 1013 10 16.09344 0 0
11:52 pm 23:52 Cloudy 79 26 64 18 61 61 ESE 7 11 29.91 1013 10 16.09344 0 0

Powered by AerisWeather